Regional Weather Roundup
Issued by NWS Cleveland, OH

Home | Current Version | Previous Version | Graphics & Text | Print | Product List | Glossary On
Versions: 1 2 3 4 5 6 7 8 9 10 11 12 13 14 15 16 17 18 19 20 21 22 23 24 25 26 27 28 29 30 31 32 33 34 35 36 37 38 39 40 41 42 43 44 45 46 47 48 49 50
000
ASUS41 KCLE 272310
RWRCLE
OHIO REGIONAL WEATHER ROUNDUP
NATIONAL WEATHER SERVICE WILMINGTON, OH
700 PM EDT SAT MAY 27 2017

NOTE: "FAIR" INDICATES FEW OR NO CLOUDS BELOW 12,000 FEET WITH NO
SIGNIFICANT WEATHER AND/OR OBSTRUCTIONS TO VISIBILITY.

OHZ001>008-015>018-024>027-034-035-043-044-280000-
   NORTHWEST OHIO

CITY           SKY/WX    TMP DP  RH WIND       PRES   REMARKS
DEFIANCE       FAIR      72  59  63 NE9       29.87F
FINDLAY        CLOUDY    72  56  57 NE14      29.86S
TOLEDO EXPRESS CLOUDY    70  54  56 E8        29.87F
TOLEDO EXEC    FAIR      71  54  54 E9        29.89S
LIMA           PTSUNNY   73  64  73 NE8       29.86R
$$

OHZ009>014-019>023-028>033-038-089-280000-
   NORTHEAST OHIO

CITY           SKY/WX    TMP DP  RH WIND       PRES   REMARKS
CLE-HOPKINS    FAIR      70  51  51 NE15      29.91S
CLE-LAKEFRONT  FAIR      64  57  78 NE9       29.89F
CUY CO. ARPT   MOSUNNY   72  52  49 NE7       29.91F
LORAIN-ELYRIA  FAIR      68  48  48 NE14      29.89F
ASHTABULA      FAIR      68  50  52 VRB6      29.92F
AKRON-CANTON   PTSUNNY   74  59  59 NE7       29.88F
WOOSTER        PTSUNNY   73  59  61 NE5       29.88F
MANSFIELD      FAIR      73  61  65 NE8       29.88S
YOUNGSTOWN     PTSUNNY   72  55  55 N7        29.89F
$$

OHZ042-051>053-060>062-070>072-077>081-280000-
  SOUTHWEST OHIO

CITY           SKY/WX    TMP DP  RH WIND       PRES   REMARKS
CINC-COVINGTON PTSUNNY   83  67  58 SW6       29.83S
CINC-LUNKEN    FAIR      82  70  66 SW5       29.81F
HAMILTON       FAIR      82  67  60 W7        29.82S
DAYTON         FAIR      79  65  62 N8        29.84F
WRIGHT-PAT AFB MOSUNNY   80  66  62 NW7       29.83S
DAYTON GENERAL FAIR      81  65  58 NW7       29.82F
WILMINGTON     FAIR      81  66  60 W7        29.83F
$$

OHZ036-037-039>041-045>050-054>059-063>069-073>076-082>088-280000-
  CENTRAL AND SOUTHEAST OHIO

CITY           SKY/WX    TMP DP  RH WIND       PRES   REMARKS
COLUMBUS       PTSUNNY   78  66  66 NE6       29.83S
OSU AIRPORT    FAIR      79  65  62 N6        29.84S
BOLTON FIELD   MOSUNNY   79  66  65 NW3       29.84F
RICKENBACK AFB FAIR      79  66  63 NE5       29.83S
NEWARK         PTSUNNY   79  63  57 N3        29.84S
MARION         FAIR      77  61  57 N5        29.86S
LANCASTER      PTSUNNY   81  67  62 NE6       29.85S
ZANESVILLE     PTSUNNY   76  64  66 NE3       29.86S
NEW PHILLY     FAIR      74  63  68 NE5       29.88R
$$




USA.gov is the U.S. government's official web portal to all federal, state and local government web resources and services.